Location: Newark
(42.8481°N, 0.4872°E)
Time: 08:01:10
(UTC+00:00)

Vanguard 1 - Pass Details

Date: 31 October 2020
Orbit: 650 x 3833 km, 34.2° (Epoch: 26 November)

Event Time Altitude Azimuth Distance (km) Brightness Sun altitude
Rises 12:35:42 0° 243° (WSW) 7,186 15.0 31.5°
Reaches altitude 10° 12:40:08 10° 241° (WSW) 6,439 15.0 31.2°
Maximum altitude 13:02:17 63° 167° (SSE) 4,074 14.1 29.9°
Drops below altitude 10° 13:22:29 10° 92° (E) 5,962 13.9 28.3°
Sets 13:26:23 0° 90° (E) 6,657 14.0 27.9°
